Flag for U.S.A. Weather past 2 weeks in Freehold, New Jersey, U.S.A.

Now
63 °F

Mostly cloudy.


Feels Like: 63 °F
Forecast: 57 / 69 °F
Wind: 6 mph from North

Location: Belmar-Farmdale

Current Time: Oct 1, 2014 at 8:57:13 PM

Latest Report: Oct 1, 2014 at 8:15 PM


Visibility: 10 mi

Pressure: 30.06 "Hg

Humidity: 77%

Dew point: 55 °F

Location of FreeholdLocation

Historic Weather in Freehold — Graph

°F

Freehold temperature yesterday

Maximum temperature yesterday: 72 °F (at 12:15 PM)
Minimum temperature yesterday: 63 °F (at 3:35 AM)
Average temperature yesterday: 65 °F

Past Weeks' High & Low Weather Summary

 TemperatureHumidityPressure
High82 °F (Sep 28, 2:35 PM)88% (Sep 21, 3:35 AM)30.54 "Hg (Sep 21, 3:35 AM)
Low45 °F (Sep 23, 5:15 AM)38% (Sep 18, 12:55 PM)29.63 "Hg (Sep 21, 6:15 PM)
Average64 °F69%30.11 "Hg
* Reported Sep 16 7:15 PM — Oct 1 7:55 PM, Freehold, Weather by CustomWeather, © 2014

Note: Actual official high and low records may vary slightly from our data, if they occured in-between our weather recording intervals... More about our weather records

Advertising

Freehold weather history for previous 24 hours

 ConditionsComfort  
Time TempWeatherWind HumidityBarometerVisibility
7:55 PM
Oct 1
63 °FMostly cloudy.7 mph77%30.06 "Hg10 mi
7:35 PM63 °FMostly cloudy.6 mph77%30.05 "Hg10 mi
7:15 PM63 °FMore clouds than sun.6 mph77%30.04 "Hg3 mi
6:55 PM63 °FMostly cloudy.8 mph77%30.04 "Hg6 mi
6:35 PM63 °FOvercast.5 mph77%30.03 "Hg10 mi
6:15 PM63 °FOvercast.6 mph77%30.03 "Hg10 mi
5:55 PM63 °FOvercast.7 mph77%30.03 "Hg10 mi
5:35 PM63 °FOvercast.7 mph77%30.03 "Hg10 mi
5:15 PM63 °FOvercast.9 mph77%30.02 "Hg10 mi
4:55 PM63 °FOvercast.7 mph77%30.02 "Hg10 mi
4:35 PM63 °FOvercast.9 mph77%30.02 "Hg10 mi
4:15 PM63 °FCloudy.10 mph77%30.02 "Hg10 mi
3:55 PM63 °FMostly cloudy.7 mph77%30.02 "Hg10 mi
3:35 PM63 °FMore clouds than sun.8 mph83%30.02 "Hg10 mi
3:15 PM63 °FMore clouds than sun.7 mph83%30.02 "Hg10 mi
2:55 PM63 °FOvercast.7 mph83%30.02 "Hg10 mi
2:35 PM63 °FMostly cloudy.8 mph83%30.02 "Hg10 mi
2:15 PM63 °FOvercast.7 mph83%30.02 "Hg10 mi
1:55 PM63 °FOvercast.7 mph77%30.02 "Hg10 mi
1:35 PM63 °FOvercast.7 mph83%30.03 "Hg10 mi
1:15 PM63 °FOvercast.8 mph83%30.03 "Hg10 mi
12:55 PM63 °FLow clouds.7 mph83%30.03 "Hg10 mi
12:35 PM63 °FMostly cloudy.6 mph83%30.04 "Hg8 mi
12:15 PM63 °FLow clouds.6 mph83%30.04 "Hg5 mi
11:55 AM63 °FLow clouds.7 mph83%30.04 "Hg4 mi
11:35 AM63 °FLow clouds.7 mph77%30.04 "Hg3 mi
11:15 AM63 °FOvercast.7 mph77%30.04 "Hg10 mi
10:55 AM63 °FMostly cloudy.8 mph77%30.04 "Hg10 mi
10:35 AM63 °FMore clouds than sun.8 mph77%30.04 "Hg9 mi
10:15 AM61 °FMore clouds than sun.8 mph83%30.04 "Hg5 mi
9:55 AM61 °FMore clouds than sun.8 mph83%30.03 "Hg3 mi
9:35 AM61 °FMostly cloudy.6 mph83%30.03 "Hg2 mi
9:15 AM61 °FLow clouds.8 mph83%30.02 "Hg3 mi
8:55 AM61 °FMostly cloudy.6 mph83%30.02 "Hg3 mi
8:35 AM61 °FLow clouds.6 mph83%30.01 "Hg2 mi
8:15 AM61 °FMostly cloudy.7 mph83%30.01 "Hg3 mi
7:55 AM61 °FMostly cloudy.6 mph83%30.01 "Hg4 mi
7:35 AM61 °FMostly cloudy.5 mph83%30.00 "Hg3 mi
7:15 AM61 °FMostly cloudy.6 mph83%30.00 "Hg3 mi
6:55 AM61 °FMostly cloudy.3 mph83%29.99 "Hg8 mi
6:35 AM61 °FMostly cloudy.5 mph83%29.99 "Hg10 mi
6:15 AM61 °FOvercast.7 mph83%29.98 "Hg10 mi
5:55 AM61 °FMostly cloudy.8 mph83%29.98 "Hg10 mi
5:35 AM61 °FMostly cloudy.8 mph83%29.98 "Hg10 mi
5:15 AM61 °FOvercast.6 mph83%29.98 "Hg4 mi
4:55 AM61 °FMostly cloudy.6 mph83%29.98 "Hg3 mi
4:35 AM61 °FMostly cloudy.7 mph83%29.98 "Hg5 mi
4:15 AM61 °FMostly cloudy.5 mph83%29.98 "Hg5 mi
3:55 AM61 °FMostly cloudy.7 mph83%29.97 "Hg4 mi
3:35 AM61 °FMostly cloudy.7 mph83%29.97 "Hg5 mi
3:15 AM61 °FOvercast.6 mph83%29.97 "Hg10 mi
2:55 AM61 °FOvercast.7 mph83%29.97 "Hg10 mi
2:35 AM61 °FOvercast.6 mph83%29.98 "Hg5 mi
1:55 AM63 °FOvercast.5 mph77%29.98 "Hg4 mi
1:35 AM63 °FMostly cloudy.6 mph83%29.98 "Hg4 mi
1:15 AM63 °FMostly cloudy.6 mph83%29.97 "Hg5 mi
12:55 AM63 °FMostly cloudy.9 mph83%29.97 "Hg9 mi
12:35 AM63 °FLow clouds.8 mph83%29.97 "Hg10 mi
12:15 AM63 °FMostly cloudy.8 mph83%29.97 "Hg5 mi
11:55 PM
Sep 30
63 °FOvercast.9 mph83%29.97 "Hg4 mi
11:35 PM63 °FMostly cloudy.7 mph83%29.97 "Hg2 mi
10:55 PM64 °FMostly cloudy.7 mph73%29.97 "Hg10 mi
10:35 PM64 °FOvercast.7 mph73%29.97 "Hg10 mi
10:15 PM63 °FMostly cloudy.5 mph77%29.97 "Hg10 mi
9:55 PM63 °FOvercast.6 mph77%29.96 "Hg10 mi
9:35 PM63 °FMostly cloudy.6 mph77%29.96 "Hg10 mi
9:15 PM63 °FMostly cloudy.8 mph77%29.96 "Hg10 mi
8:55 PM63 °FOvercast.9 mph77%29.96 "Hg10 mi
8:35 PM64 °FPartly cloudy.10 mph73%29.96 "Hg10 mi
Weather by CustomWeather, © 2014

See weather overviewHow to use our weather pages